Regional Weather Roundup
Issued by NWS

Home | Current Version | Previous Version | Graphics & Text | Print | Product List | Glossary On
Versions: 1 2 3 4 5 6 7 8 9 10 11 12 13 14 15 16 17 18 19 20 21 22 23 24 25 26 27 28 29 30 31 32 33 34 35 36 37 38 39 40 41 42 43 44 45 46 47 48 49 50
000
ASUS43 KFSD 112310
RWRSD

WEATHER ROUNDUP FOR SOUTH DAKOTA
NATIONAL WEATHER SERVICE SIOUX FALLS SD
600 PM CDT FRI JUL 11 2014

NOTE: "FAIR" INDICATES FEW OR NO CLOUDS BELOW 12,000 FEET WITH NO
SIGNIFICANT WEATHER AND/OR OBSTRUCTIONS TO VISIBILITY.


SDZ001>005-009-010-012>017-120000-
NORTHWEST AND NORTH CENTRAL SOUTH DAKOTA

CITY           SKY/WX    TMP DP  RH WIND       PRES   REMARKS
BUFFALO          N/A     82  58  43 NE16      30.02S
FAITH            N/A     82  61  48 E14       30.04R
MOBRIDGE       MOSUNNY   87  61  41 N12       29.97R
$$

SDZ012>016-024>037-041>051-057-063-072>074-120000-
SOUTHWEST AND SOUTH CENTRAL SOUTH DAKOTA

CITY           SKY/WX    TMP DP  RH WIND       PRES   REMARKS
RAPID CTY ARPT TSTM      67  63  87 SW16G28   30.10R FOG
PIERRE         LGT RAIN  89  73  59 NW7       29.93F HX  97
CUSTER         RAIN      61  57  87 SE9G24    30.25R
ELLSWORTH AFB  CLOUDY    75  63  64 W5        30.07R THUNDER
PHILIP         CLOUDY    84  66  54 E5        29.98R
PINE RIDGE     CLOUDY    81  65  58 NE10      30.03R
WINNER         FAIR      89  61  38 E10       29.95F
$$

SDZ004>011-016>023-039-040-120000-
NORTHEAST SOUTH DAKOTA

CITY           SKY/WX    TMP DP  RH WIND       PRES   REMARKS
ABERDEEN       SUNNY     85  68  56 NE8       29.95F
WATERTOWN      PTSUNNY   89  67  47 N14       29.96R
SISSETON         N/A     86  69  56 N7        29.93S
$$

SDZ017-020-022-023-036>040-048>070-120000-
SOUTHEAST SOUTH DAKOTA

CITY           SKY/WX    TMP DP  RH WIND       PRES   REMARKS
SIOUX FALLS    CLOUDY    80  72  76 S13       29.97S
HURON          SUNNY     93  63  36 N9        29.92S
CHAMBERLAIN    PTSUNNY   89  64  43 E5        29.94F
MITCHELL       MOSUNNY   87  74  64 SE10      29.94S HX  95
YANKTON        PTSUNNY   79  73  83 SE7       29.97S
$$

ABBREVIATIONS USED IN REMARKS
   TC - TEMPERATURE IN CELSIUS
  WCI - WIND CHILL INDEX
   HX - HEAT INDEX
  VSB - VISIBILITY



USA.gov is the U.S. government's official web portal to all federal, state and local government web resources and services.